Location: Unspecified
(0.0000°N, 0.0000°E)
Time: 06:51:09
(UTC+00:00)

Envisat - Pass Details

Date: 09 February 2018
Orbit: 764 x 766 km, 98.2° (Epoch: 24 May)

Event Time Altitude Azimuth Distance (km) Brightness Sun altitude
Rises 19:25:10 0° 152° (SSE) 3,228 6.1 -17.2°
Reaches altitude 10° 19:27:39 10° 143° (SE) 2,300 5.3 -17.8°
Maximum altitude 19:32:15 35° 78° (ENE) 1,208 3.5 -18.9°
Enters shadow 19:32:19 35° 76° (ENE) 1,208 3.5 -18.9°
